When you browse on this site, cookies collect data to enhance your experience and personalize the content and advertising you see.
Visit our Privacy Policy to learn more. By continuing to use the site, you agree to this use of cookies and data.
  • In Hungary
  • List of Countries
  • For 7 days
  • Water Temperature
  • Satellite Maps
  • Weather Map
  • News
  • Weather Widgets
  • user-avatar
    Login

    Hourly Weather Choisy-le-Roi

    Today, 23 March, Saturday

    Time Temperature Precipitation Wind Pressure Humidity
    00:00 +11°C° 0 mm 1 mps 768 mmHg 62%
    01:00 +11°C° 0 mm 1 mps 768 mmHg 65%
    02:00 +10°C° 0 mm 1 mps 768 mmHg 68%
    03:00 +10°C° 0 mm 1 mps 768 mmHg 71%
    04:00 +10°C° 0 mm 1 mps 768 mmHg 74%
    05:00 +9°C° 0 mm 1 mps 768 mmHg 77%
    06:00 +8°C° 0 mm 1 mps 769 mmHg 80%
    07:00 +8°C° 0 mm 2 mps 769 mmHg 76%
    08:00 +10°C° 0 mm 2 mps 769 mmHg 73%
    09:00 +12°C° 0 mm 2 mps 769 mmHg 69%
    10:00 +13°C° 0 mm 2 mps 769 mmHg 64%
    11:00 +14°C° 0 mm 2 mps 769 mmHg 59%
    12:00 +15°C° 0 mm 2 mps 769 mmHg 54%
    13:00 +16°C° 0 mm 2 mps 769 mmHg 54%
    14:00 +16°C° 0 mm 3 mps 768 mmHg 54%
    15:00 +16°C° 0 mm 3 mps 768 mmHg 54%
    16:00 +14°C° 0 mm 3 mps 768 mmHg 59%
    17:00 +13°C° 0 mm 3 mps 768 mmHg 64%
    18:00 +11°C° 0 mm 3 mps 768 mmHg 69%
    19:00 +11°C° 0 mm 3 mps 768 mmHg 71%
    20:00 +10°C° 0 mm 3 mps 769 mmHg 74%
    21:00 +10°C° 0 mm 2 mps 769 mmHg 76%
    22:00 +9°C° 0 mm 2 mps 769 mmHg 78%
    23:00 +9°C° 0 mm 2 mps 769 mmHg 81%

    Tomorrow, 24 March, Sunday

    Time Temperature Precipitation Wind Pressure Humidity
    00:00 +9°C° 0 mm 2 mps 768 mmHg 83%
    01:00 +8°C° 0 mm 2 mps 768 mmHg 85%
    02:00 +8°C° 0 mm 2 mps 768 mmHg 87%
    03:00 +7°C° 0 mm 2 mps 768 mmHg 90%
    04:00 +7°C° 0 mm 2 mps 768 mmHg 91%
    05:00 +7°C° 0 mm 2 mps 768 mmHg 92%
    06:00 +6°C° 0 mm 2 mps 768 mmHg 93%
    07:00 +7°C° 0 mm 2 mps 768 mmHg 88%
    08:00 +8°C° 0 mm 2 mps 768 mmHg 84%
    09:00 +9°C° 0 mm 2 mps 768 mmHg 79%
    10:00 +12°C° 0 mm 2 mps 768 mmHg 73%
    11:00 +12°C° 0 mm 3 mps 768 mmHg 67%
    12:00 +14°C° 0 mm 3 mps 768 mmHg 61%
    13:00 +14°C° 0 mm 4 mps 768 mmHg 59%
    14:00 +14°C° 0 mm 4 mps 767 mmHg 57%
    15:00 +14°C° 0 mm 4 mps 767 mmHg 56%
    16:00 +14°C° 0 mm 4 mps 767 mmHg 58%
    17:00 +13°C° 0 mm 4 mps 767 mmHg 60%
    18:00 +12°C° 0 mm 4 mps 768 mmHg 62%
    19:00 +11°C° 0 mm 3 mps 768 mmHg 61%
    20:00 +10°C° 0 mm 3 mps 768 mmHg 60%
    21:00 +9°C° 0 mm 3 mps 768 mmHg 60%
    22:00 +8°C° 0 mm 3 mps 769 mmHg 60%
    23:00 +8°C° 0 mm 3 mps 769 mmHg 60%

    Day after tomorrow, 25 March, Monday

    Time Temperature Precipitation Wind Pressure Humidity
    00:00 +7°C° 0 mm 2 mps 769 mmHg 60%
    01:00 +7°C° 0 mm 2 mps 769 mmHg 63%
    02:00 +7°C° 0 mm 2 mps 768 mmHg 67%
    03:00 +6°C° 0 mm 2 mps 768 mmHg 70%
    04:00 +6°C° 0 mm 2 mps 768 mmHg 72%
    05:00 +5°C° 0 mm 3 mps 768 mmHg 73%
    06:00 +5°C° 0 mm 3 mps 768 mmHg 74%
    07:00 +6°C° 0 mm 4 mps 769 mmHg 70%
    08:00 +7°C° 0 mm 4 mps 769 mmHg 66%
    09:00 +8°C° 0 mm 5 mps 769 mmHg 61%
    10:00 +8°C° 0 mm 5 mps 770 mmHg 57%
    11:00 +9°C° 0 mm 5 mps 770 mmHg 52%
    12:00 +9°C° 0 mm 5 mps 770 mmHg 48%
    13:00 +9°C° 0 mm 5 mps 770 mmHg 47%
    14:00 +9°C° 0 mm 6 mps 770 mmHg 46%
    15:00 +10°C° 0 mm 6 mps 770 mmHg 46%
    16:00 +9°C° 0 mm 5 mps 770 mmHg 49%
    17:00 +9°C° 0 mm 5 mps 770 mmHg 52%
    18:00 +8°C° 0 mm 4 mps 771 mmHg 55%
    19:00 +7°C° 0 mm 4 mps 771 mmHg 59%
    20:00 +7°C° 0 mm 4 mps 772 mmHg 64%
    21:00 +6°C° 0 mm 4 mps 772 mmHg 68%
    22:00 +6°C° 0 mm 4 mps 772 mmHg 71%
    23:00 +5°C° 0 mm 4 mps 773 mmHg 74%

    26 March, Tuesday

    Time Temperature Precipitation Wind Pressure Humidity
    00:00 +5°C° 0 mm 4 mps 773 mmHg 77%
    01:00 +4°C° 0 mm 4 mps 773 mmHg 79%
    02:00 +4°C° 0 mm 4 mps 773 mmHg 81%
    03:00 +4°C° 0 mm 3 mps 773 mmHg 83%
    04:00 +3°C° 0 mm 3 mps 773 mmHg 84%
    05:00 +3°C° 0 mm 3 mps 773 mmHg 85%
    06:00 +3°C° 0 mm 3 mps 773 mmHg 87%
    07:00 +4°C° 0 mm 3 mps 773 mmHg 80%
    08:00 +5°C° 0 mm 3 mps 773 mmHg 73%
    09:00 +7°C° 0 mm 3 mps 774 mmHg 67%
    10:00 +9°C° 0 mm 3 mps 774 mmHg 60%
    11:00 +10°C° 0 mm 3 mps 774 mmHg 52%
    12:00 +11°C° 0 mm 4 mps 773 mmHg 45%
    13:00 +12°C° 0 mm 3 mps 773 mmHg 44%
    14:00 +12°C° 0 mm 3 mps 773 mmHg 42%
    15:00 +13°C° 0 mm 3 mps 772 mmHg 40%
    16:00 +12°C° 0 mm 3 mps 772 mmHg 45%
    17:00 +11°C° 0 mm 3 mps 772 mmHg 50%
    18:00 +10°C° 0 mm 3 mps 772 mmHg 55%
    19:00 +9°C° 0 mm 3 mps 772 mmHg 58%
    20:00 +9°C° 0 mm 3 mps 773 mmHg 61%
    21:00 +8°C° 0 mm 3 mps 773 mmHg 64%
    22:00 +8°C° 0 mm 3 mps 773 mmHg 67%
    23:00 +7°C° 0 mm 3 mps 773 mmHg 69%

    27 March, Wednesday

    Time Temperature Precipitation Wind Pressure Humidity
    00:00 +7°C° 0 mm 3 mps 773 mmHg 71%
    01:00 +6°C° 0 mm 2 mps 773 mmHg 73%
    02:00 +6°C° 0 mm 2 mps 773 mmHg 75%
    03:00 +5°C° 0 mm 2 mps 773 mmHg 76%
    04:00 +5°C° 0 mm 2 mps 773 mmHg 77%
    05:00 +5°C° 0 mm 2 mps 773 mmHg 78%
    06:00 +5°C° 0 mm 2 mps 773 mmHg 79%
    07:00 +6°C° 0 mm 2 mps 773 mmHg 72%
    08:00 +7°C° 0 mm 2 mps 773 mmHg 65%
    09:00 +9°C° 0 mm 2 mps 773 mmHg 58%
    10:00 +10°C° 0 mm 2 mps 773 mmHg 53%
    11:00 +12°C° 0 mm 3 mps 773 mmHg 48%
    12:00 +13°C° 0 mm 3 mps 773 mmHg 43%
    13:00 +14°C° 0 mm 3 mps 773 mmHg 43%
    14:00 +14°C° 0 mm 3 mps 772 mmHg 44%
    15:00 +16°C° 0 mm 3 mps 772 mmHg 45%
    16:00 +14°C° 0 mm 3 mps 772 mmHg 50%
    17:00 +13°C° 0 mm 3 mps 772 mmHg 56%
    18:00 +12°C° 0 mm 3 mps 772 mmHg 61%
    19:00 +12°C° 0 mm 3 mps 772 mmHg 65%
    20:00 +11°C° 0 mm 3 mps 773 mmHg 68%
    21:00 +10°C° 0 mm 3 mps 773 mmHg 71%
    22:00 +10°C° 0 mm 3 mps 773 mmHg 75%
    23:00 +9°C° 0 mm 3 mps 773 mmHg 78%

    28 March, Thursday

    Time Temperature Precipitation Wind Pressure Humidity
    00:00 +9°C° 0 mm 3 mps 773 mmHg 82%
    01:00 +8°C° 0 mm 3 mps 773 mmHg 83%
    02:00 +8°C° 0 mm 2 mps 773 mmHg 84%
    03:00 +7°C° 0 mm 2 mps 773 mmHg 86%
    04:00 +7°C° 0 mm 2 mps 773 mmHg 86%
    05:00 +7°C° 0 mm 2 mps 773 mmHg 87%
    06:00 +7°C° 0 mm 2 mps 773 mmHg 87%
    07:00 +8°C° 0 mm 2 mps 773 mmHg 81%
    08:00 +9°C° 0 mm 2 mps 773 mmHg 76%
    09:00 +11°C° 0 mm 3 mps 773 mmHg 70%
    10:00 +12°C° 0 mm 3 mps 773 mmHg 65%
    11:00 +14°C° 0 mm 3 mps 773 mmHg 61%
    12:00 +16°C° 0 mm 3 mps 773 mmHg 56%
    13:00 +16°C° 0 mm 3 mps 772 mmHg 57%
    14:00 +16°C° 0 mm 3 mps 772 mmHg 57%
    15:00 +16°C° 0 mm 3 mps 772 mmHg 58%
    16:00 +14°C° 0 mm 3 mps 772 mmHg 60%
    17:00 +14°C° 0 mm 3 mps 772 mmHg 63%
    18:00 +13°C° 0 mm 3 mps 772 mmHg 65%
    19:00 +12°C° 0 mm 3 mps 772 mmHg 69%
    20:00 +13°C° 0 mm 2 mps 772 mmHg 73%
    21:00 +12°C° 0 mm 2 mps 772 mmHg 77%
    22:00 +10°C° 0 mm 2 mps 772 mmHg 80%
    23:00 +10°C° 0 mm 2 mps 772 mmHg 83%
    Show more